Location: Newark
(10.0000°N, 11.0000°W)
Time: 07:47:51
(UTC+00:00)

LightSail 2 - Visible Passes

Search period start: 14 December 2019 00:00
Search period end: 24 December 2019 00:00
Orbit: 696 x 730 km, 24.0° (Epoch: 13 December)

Date Brightness Start Highest point End Pass type
(mag) Time Alt. Az. Time Alt. Az. Time Alt. Az.
14 Dec 5.4 19:08:34 10° WNW 19:13:45 73° SSW 19:18:53 10° ESE visible
14 Dec 7.4 20:55:31 10° WSW 20:58:55 19° SSW 20:58:55 19° SSW visible
15 Dec 6.9 19:56:39 10° W 20:01:04 28° SSW 20:05:26 10° SSE visible
16 Dec 6.5 18:58:03 10° W 19:02:56 41° SSW 19:07:47 10° SE visible
16 Dec 8.0 20:47:20 10° SW 20:48:28 11° SSW 20:49:36 10° SSW visible
17 Dec 7.8 19:47:07 10° WSW 19:50:16 16° SSW 19:53:24 10° SSE visible
18 Dec 7.4 06:26:51 10° SSW 06:30:54 24° SSE 06:34:59 10° E visible
18 Dec 7.5 18:47:59 10° WSW 18:52:06 23° SSW 18:56:11 10° SSE visible
19 Dec 7.7 05:29:37 10° SSW 05:32:45 16° SSE 05:35:53 10° ESE visible
20 Dec 7.9 04:33:16 10° S 04:34:33 11° SSE 04:35:50 10° SE visible
20 Dec 6.4 06:15:16 10° SW 06:20:03 42° SSE 06:24:52 10° E visible
21 Dec 6.9 05:17:34 10° SSW 05:21:55 29° SSE 05:26:17 10° E visible
22 Dec 7.3 04:24:03 20° SSE 04:24:03 20° SSE 04:27:25 10° ESE visible
22 Dec 5.3 06:04:07 10° WSW 06:09:10 76° SSE 06:14:16 10° ENE visible
23 Dec 5.7 05:09:29 38° SSW 05:11:02 52° SSE 05:15:57 10° E visible
